TimeEST,TemperatureF,Dew PointF,Humidity,Sea Level PressureIn,VisibilityMPH,Wind Direction,Wind SpeedMPH,Gust SpeedMPH,PrecipitationIn,Events,Conditions,WindDirDegrees,DateUTC
12:44 AM,69.8,66.2,88,30.04,10.0,SE,5.8,-,N/A,,Mostly Cloudy,130,2013-02-23 05:44:00
12:53 AM,69.1,66.9,93,30.04,10.0,SE,4.6,-,N/A,,Mostly Cloudy,140,2013-02-23 05:53:00
1:00 AM,69.8,66.2,88,30.04,10.0,SE,5.8,-,N/A,,Mostly Cloudy,140,2013-02-23 06:00:00
1:15 AM,68.0,66.2,94,30.04,10.0,Calm,Calm,-,N/A,,Scattered Clouds,0,2013-02-23 06:15:00
1:53 AM,66.9,64.9,93,30.03,9.0,SE,4.6,-,N/A,,Clear,130,2013-02-23 06:53:00
2:37 AM,66.2,66.2,100,30.02,8.0,SSE,4.6,-,N/A,,Scattered Clouds,150,2013-02-23 07:37:00
2:46 AM,66.2,66.2,100,30.01,8.0,SSE,3.5,-,N/A,,Mostly Cloudy,150,2013-02-23 07:46:00
2:53 AM,68.0,66.9,96,30.02,8.0,SSE,5.8,-,N/A,,Overcast,160,2013-02-23 07:53:00
4:53 AM,71.1,69.1,93,30.00,10.0,SSE,8.1,-,N/A,,Overcast,160,2013-02-23 09:53:00
5:53 AM,71.1,69.1,93,30.01,10.0,SSE,9.2,-,N/A,,Overcast,150,2013-02-23 10:53:00
6:25 AM,69.8,68.0,94,30.01,10.0,SSE,6.9,-,N/A,,Mostly Cloudy,150,2013-02-23 11:25:00
6:48 AM,69.8,68.0,94,30.01,10.0,SSE,9.2,-,N/A,,Partly Cloudy,160,2013-02-23 11:48:00
6:53 AM,70.0,68.0,93,30.01,10.0,SSE,8.1,-,N/A,,Partly Cloudy,160,2013-02-23 11:53:00
7:53 AM,71.1,69.1,93,30.02,10.0,SSE,6.9,-,N/A,,Partly Cloudy,150,2013-02-23 12:53:00
8:19 AM,71.6,69.8,94,30.03,10.0,SSE,8.1,-,N/A,,Mostly Cloudy,160,2013-02-23 13:19:00
8:26 AM,73.4,69.8,88,30.03,10.0,South,10.4,-,N/A,,Mostly Cloudy,170,2013-02-23 13:26:00
8:53 AM,73.9,70.0,87,30.04,10.0,SSE,9.2,-,N/A,,Mostly Cloudy,160,2013-02-23 13:53:00
9:43 AM,78.8,69.8,74,30.04,10.0,South,12.7,-,N/A,,Mostly Cloudy,180,2013-02-23 14:43:00
9:53 AM,78.1,69.1,74,30.04,10.0,South,16.1,-,N/A,,Mostly Cloudy,180,2013-02-23 14:53:00
10:02 AM,78.8,69.8,74,30.03,10.0,South,15.0,-,N/A,,Scattered Clouds,190,2013-02-23 15:02:00
10:53 AM,82.0,69.1,65,30.03,10.0,SSW,15.0,-,N/A,,Scattered Clouds,200,2013-02-23 15:53:00
11:40 AM,82.4,69.8,66,30.02,10.0,SSW,13.8,-,N/A,,Mostly Cloudy,210,2013-02-23 16:40:00
11:53 AM,82.0,68.0,62,30.02,10.0,SSW,18.4,25.3,N/A,,Mostly Cloudy,210,2013-02-23 16:53:00
12:11 PM,84.2,69.8,62,30.01,10.0,SSW,17.3,26.5,N/A,,Scattered Clouds,200,2013-02-23 17:11:00
12:53 PM,84.0,69.1,61,30.00,10.0,SW,17.3,-,N/A,,Mostly Cloudy,230,2013-02-23 17:53:00
1:53 PM,82.0,69.1,65,29.98,10.0,SW,12.7,-,N/A,,Mostly Cloudy,220,2013-02-23 18:53:00
2:32 PM,84.2,69.8,62,29.96,10.0,SW,16.1,23.0,N/A,,Mostly Cloudy,230,2013-02-23 19:32:00
2:53 PM,84.0,70.0,63,29.96,10.0,SW,15.0,-,N/A,,Scattered Clouds,220,2013-02-23 19:53:00
3:53 PM,82.0,70.0,67,29.96,10.0,SW,17.3,-,N/A,,Clear,220,2013-02-23 20:53:00
4:53 PM,81.0,70.0,69,29.94,10.0,SW,12.7,-,N/A,,Clear,220,2013-02-23 21:53:00
5:53 PM,78.1,71.1,79,29.95,10.0,SW,10.4,-,N/A,,Scattered Clouds,230,2013-02-23 22:53:00
6:53 PM,75.0,71.1,87,29.96,10.0,SW,9.2,-,N/A,,Clear,230,2013-02-23 23:53:00
7:53 PM,73.9,71.1,91,29.98,10.0,SW,6.9,-,N/A,,Clear,220,2013-02-24 00:53:00
8:53 PM,71.1,70.0,96,29.98,8.0,SSW,3.5,-,N/A,,Clear,200,2013-02-24 01:53:00
9:36 PM,69.8,69.8,100,29.99,2.5,South,3.5,-,N/A,,Mostly Cloudy,190,2013-02-24 02:36:00
9:43 PM,69.8,68.0,94,29.99,5.0,SSW,3.5,-,N/A,,Mostly Cloudy,200,2013-02-24 02:43:00
9:47 PM,69.8,68.0,94,29.99,1.2,Calm,Calm,-,N/A,,Overcast,0,2013-02-24 02:47:00
9:53 PM,69.1,68.0,96,29.99,0.2,Calm,Calm,-,N/A,Fog,Fog,0,2013-02-24 02:53:00
10:12 PM,69.8,68.0,94,29.99,0.8,Calm,Calm,-,N/A,,Mist,0,2013-02-24 03:12:00
10:19 PM,69.8,69.8,100,29.99,1.2,Calm,Calm,-,N/A,,Overcast,0,2013-02-24 03:19:00
10:29 PM,69.8,69.8,100,29.99,0.5,Calm,Calm,-,N/A,Fog,Fog,0,2013-02-24 03:29:00
10:53 PM,70.0,69.1,97,30.00,0.2,Calm,Calm,-,N/A,Fog,Fog,0,2013-02-24 03:53:00
11:14 PM,69.8,69.8,100,29.99,2.0,SSW,4.6,-,N/A,,Overcast,200,2013-02-24 04:14:00
11:49 PM,71.6,69.8,94,29.99,1.5,SSW,3.5,-,N/A,,Overcast,210,2013-02-24 04:49:00
11:53 PM,71.1,70.0,96,29.99,1.2,SW,4.6,-,N/A,,Overcast,230,2013-02-24 04:53:00